星链-35222(STARLINK-35222)

导读 | 豆包AI

STARLINK-35222是美国星链计划的卫星,于2025年9月21日发射升空。星链项目是太空探索技术公司打造的低轨卫星互联网星座,计划部署数万颗卫星。该卫星入轨后将参与组网,进一步扩展星链全球网络覆盖,为全球多地提供高速低延迟互联网服务,推动太空互联网基础设施建设。

基本信息
目录编号:
65677
目录名称:
STARLINK-35222
国际标识:
2025-212B
轨道中心:
EARTH
卫星名称:
星链-35222
卫星全名:
星链-35222(STARLINK-35222)
卫星状态:
在轨 (已飞行195 天)
发射日期:
2025-09-21 UTC
国别 :
美国 (US)
星等 :
--
轨道信息
数据来源 国际轨道数据
星历时间: 2026-04-03T23:14:15+0800
18小时前
查看轨道信息
半长轴: 6853.344km
偏心率: 0.0001388
轨道倾角: 53.164°
近地点辐角 79.537°
升交点赤经 229.745°
平近点角 280.578°
近地点: 474.255km
远地点: 476.159km
周期: 94.105分钟
每日圈数: 15.30203
详细信息
固有亮度:
5
最大亮度:
2.5
卫星平台:
Starlink V1.0
覆盖范围:
全球
运营商:
太空探索技术公司
运营商所在国:
美国
制造商(研发单位):
太空探索技术公司
制造商所在国:
美国
使用方式:
暂无
卫星简介
Starlink 计划是 SpaceX 推出的全球卫星互联网项目,通过发射低轨道卫星,为全球尤其是偏远地区提供高速、低延迟的互联网服务。自 2019 年起,Starlink 已部署数千颗卫星,旨在缩小全球数字鸿沟,推动互联网普及。该项目还为军事、航空等行业提供通信支持,带来广泛经济效益。
2D轨道图
3D轨道图
轨道高度分析图
轨道倾角分析图
轨道综合分析图
查看轨道综合分析图